Regional Weather Roundup
Issued by NWS

Home | Current Version | Previous Version | Graphics & Text | Print | Product List | Glossary On
Versions: 1 2 3 4 5 6 7 8 9 10 11 12 13 14 15 16 17 18 19 20 21 22 23 24 25 26 27 28 29 30 31 32 33 34 35 36 37 38 39 40 41 42 43 44 45 46 47 48 49 50
000
ASUS43 KIND 171609
RWRIN

WEATHER ROUNDUP FOR INDIANA
NATIONAL WEATHER SERVICE INDIANAPOLIS IN
1100 AM EST SUN DEC 17 2017

NOTE: "FAIR" INDICATES FEW OR NO CLOUDS BELOW 12,000 FEET WITH NO
SIGNIFICANT WEATHER AND/OR OBSTRUCTIONS TO VISIBILITY.

* - STATION DOES NOT REPORT WEATHER SUCH AS PRECIPITATION OR FOG.

+ - STATION NOT QUALITY CONTROLLED BY THE NATIONAL WEATHER SERVICE.
    USE DATA WITH CAUTION...ESPECIALLY DEWPOINT AND RELATIVE
    HUMIDITY OBSERVATIONS.

INZ001>003-010>013-019-020-171700-
NORTHWEST INDIANA

CITY           SKY/WX    TMP DP  RH WIND       PRES   REMARKS
GARY /AIRPORT/ CLOUDY    36  30  80 S7        30.08R WCI  30
KNOX *+        CLOUDY    36  32  87 S7        30.09R WCI  30
LA PORTE +     CLOUDY    32  29  90 SE3       30.10R
MICHIGAN CITY+ CLOUDY    34  30  86 S5        30.09R WCI  30
MONTICELLO +   CLOUDY    38  30  73 S3        30.10R
RENSSELAER +   CLOUDY    37  30  75 S6        30.09S WCI  33
VALPARAISO     CLOUDY    37  31  78 SE6       30.09R WCI  32

$$

LMZ046-743>745-171700-
SOUTHERN LAKE MICHIGAN

STATION/POSITION TIME  TEMP    WIND        PRES    WAVE
                       AIR SEA DIR/SP/G            HT
                 (UTC) (F)     (DEG/KT/KT) (MB)    (FT)
BURNS HARBOR     1540   36     170/  6/  9 1019.0R
MICHIGAN CITY    1540   34     140/  5/  6   N/A

$$

INZ004-005-014>016-021>024-171700-
NORTH CENTRAL INDIANA

CITY           SKY/WX    TMP DP  RH WIND       PRES   REMARKS
ELKHART        CLOUDY    30  27  86 E5        30.10R FOG     WCI  25
GOSHEN         MOSUNNY   32  28  85 SE5       30.10R FOG     WCI  27
LOGANSPORT +   CLOUDY    36  32  87 SE3       30.11R
PERU/GRISSOM   PTSUNNY   39  33  80 S7        30.10R WCI  34
ROCHESTER +    MOSUNNY   37  32  81 SE3       30.11R
SOUTH BEND     CLOUDY    30  28  92 SE7       30.10R FOG     WCI  23
WARSAW +       CLOUDY    32  28  86 CALM      30.11R FOG

$$

INZ006>009-017-018-025>027-171700-
NORTHEAST INDIANA

CITY           SKY/WX    TMP DP  RH WIND       PRES   REMARKS
AUBURN +       CLOUDY    32  30  93 E7        30.12S FOG     WCI  26
FORT WAYNE     CLOUDY    31  29  92 E6        30.13R FOG     WCI  25
HUNTINGTON +   MOSUNNY   33  31  91 CALM      30.13R
KENDALLVILLE + CLOUDY    30  30 100 E5        30.11R FOG     WCI  25

$$

INZ028-029-035-036-043>045-051>053-171700-
WEST CENTRAL INDIANA

CITY           SKY/WX    TMP DP  RH WIND       PRES   REMARKS
CRAWFORDSVL +  CLOUDY    38  31  74 SW6       30.11S WCI  34
GREENCASTLE +  CLOUDY    41  30  65 CALM      30.12S
LAFAYETTE      CLOUDY    39  32  76 SW6       30.11R WCI  35
TERRE HAUTE    CLOUDY    44  31  60 SW10      30.14R

$$

INZ030>032-037>040-046>048-054>057-064-065-171700-
CENTRAL INDIANA

CITY           SKY/WX    TMP DP  RH WIND       PRES   REMARKS
COLUMBUS       LGT RAIN  39  30  70 S6        30.15R WCI  35
FRANKFORT +    CLOUDY    42  33  69 SW6       30.12R
GREENWOOD *+   CLOUDY    42  33  71 S6        30.13R
INDIANAPOLIS   CLOUDY    42  31  64 S3        30.12R
-EAGLE CREEK   CLOUDY    41  30  65 S3        30.12R
KOKOMO +       CLOUDY    37  31  78 S7        30.12R WCI  32
MARION +       CLOUDY    37  31  78 S6        30.13R WCI  33
MT COMFORT *+  CLOUDY    37  34  87 S9        30.12R WCI  31
SHELBYVILLE    LGT RAIN  42  30  62 S12       30.13R
ZIONSVILLE +   CLOUDY    39  30  71 S5        30.12R WCI  35

$$

INZ033-034-041-042-049-050-058-059-171700-
EAST CENTRAL INDIANA

CITY           SKY/WX    TMP DP  RH WIND       PRES   REMARKS
MUNCIE         CLOUDY    42  30  62 SW8       30.12R
RICHMOND +     CLOUDY    36  32  87 S9        30.15R WCI  29

$$

INZ060-061-067>069-081>083-085>088-171700-
SOUTHWEST INDIANA

CITY           SKY/WX    TMP DP  RH WIND       PRES   REMARKS
EVANSVILLE     LGT RAIN  43  37  79 SW10      30.18R
HUNTINGBURG +  CLOUDY    44  33  65 S8        30.16R
WASHINGTON +   CLOUDY    42  32  67 SW7       30.15R

$$

INZ062-063-066-070>080-084-089>092-171700-
SOUTH CENTRAL AND SOUTHEAST INDIANA

CITY           SKY/WX    TMP DP  RH WIND       PRES   REMARKS
BEDFORD +      DRIZZLE   41  32  70 S7        30.13F
BLOOMINGTON    CLOUDY    43  31  62 SW5       30.12F
MADISON *+     CLOUDY    41  32  70 SE5       30.16F
NORTH VERNON + DRIZZLE   41  30  65 S8        30.16R
SEYMOUR +      CLOUDY    45  32  61 SE6       30.13

$$




USA.gov is the U.S. government's official web portal to all federal, state and local government web resources and services.